Simultaneous Nadir Overpasses (SNOs) Predictions

Prediction of SNOs between GOES-17 and NOAA-19 Satellite Orbit:

Table of predicted SNOs for the next 14.0 days since TLE Epoch: 10/15/2022
Index Date Time (GOES-17) GOES-17 Lat,Lon NOAA-19 Lat,Lon Distance(km) Time Diff (sec)
1 10/15/2022 17:23:32 -0.07,-137.34 0.52,-140.03 306.31 80
2 10/16/2022 17:14:18 -0.07,-137.34 -0.15,-137.13 24.53 80
3 10/17/2022 17:02:24 -0.07,-137.33 -0.76,-134.22 354.81 80
4 10/20/2022 05:20:14 0.07,-137.30 -0.37,-139.08 203.67 80
5 10/21/2022 05:11:02 0.06,-137.29 0.34,-136.19 126.37 80
6 10/22/2022 04:59:08 0.06,-137.29 1.00,-133.29 456.24 80
7 10/23/2022 17:28:47 -0.07,-137.28 0.80,-141.03 427.79 80
8 10/24/2022 17:16:53 -0.07,-137.27 0.12,-138.13 98.12 80
9 10/25/2022 17:07:39 -0.06,-137.25 -0.51,-135.22 231.40 80
10 10/28/2022 05:25:32 0.06,-137.19 -0.59,-140.10 331.09 80
